RPB7212 SKCG-SKSP

Flight info

Callsign RPB7212
Flight time N/A
Altitude 36000
Route KOPGI2A KOPGI G445 DAGAS DCT PUMRI PUMRI2A
Aircraft B738/M-SDE2E3FGHIRWXY/LB1

Departure

Time 2026-05-08 16:49
Airport Rafael Nuñez International Airport (SKCG)

Arrival

Time N/A
Airport Gustavo Rojas Pinilla International Airport (SKSP)
Time Latitude Longitude Altitude Speed Heading
2026-05-08 16:17 10.44578 -75.51556 15 ft 0 kts 271°
2026-05-08 16:22 10.44569 -75.51547 15 ft 0 kts 272°
2026-05-08 16:39 10.44569 -75.51539 15 ft 4 kts 272°
2026-05-08 16:39 10.44568 -75.51512 15 ft 4 kts 272°
2026-05-08 16:39 10.44567 -75.51488 15 ft 2 kts 272°
2026-05-08 16:40 10.44571 -75.51467 15 ft 4 kts 213°
2026-05-08 16:40 10.44595 -75.51458 15 ft 4 kts 184°
2026-05-08 16:40 10.44585 -75.51456 15 ft 4 kts 169°
2026-05-08 16:40 10.44563 -75.51443 15 ft 4 kts 139°
2026-05-08 16:41 10.44554 -75.51420 15 ft 4 kts 96°
2026-05-08 16:41 10.44553 -75.51395 15 ft 4 kts 92°
2026-05-08 16:41 10.44552 -75.51373 15 ft 0 kts 93°
2026-05-08 16:45 10.44551 -75.51367 15 ft 2 kts 95°
2026-05-08 16:45 10.44547 -75.51330 15 ft 8 kts 99°
2026-05-08 16:45 10.44496 -75.51283 15 ft 13 kts 174°
2026-05-08 16:45 10.44386 -75.51286 15 ft 19 kts 182°
2026-05-08 16:46 10.44232 -75.51292 13 ft 26 kts 182°
2026-05-08 16:46 10.44035 -75.51300 12 ft 31 kts 182°
2026-05-08 16:46 10.43809 -75.51309 14 ft 34 kts 182°
2026-05-08 16:46 10.43559 -75.51319 15 ft 37 kts 182°
2026-05-08 16:47 10.43318 -75.51329 17 ft 30 kts 182°
2026-05-08 16:47 10.43196 -75.51287 16 ft 18 kts 136°
2026-05-08 16:47 10.43092 -75.51239 16 ft 14 kts 200°
2026-05-08 16:47 10.43075 -75.51317 17 ft 12 kts 288°
2026-05-08 16:48 10.43123 -75.51337 17 ft 0 kts
2026-05-08 16:48 10.43156 -75.51336 17 ft 13 kts
2026-05-08 16:49 10.43477 -75.51322 17 ft 81 kts
2026-05-08 16:49 10.44266 -75.51290 13 ft 143 kts
2026-05-08 16:49 10.45400 -75.51244 239 ft 173 kts
2026-05-08 16:49 10.46592 -75.51190 954 ft 176 kts
2026-05-08 16:50 10.47762 -75.51495 1661 ft 176 kts 324°
2026-05-08 16:50 10.48520 -75.52501 2090 ft 194 kts 290°
2026-05-08 16:50 10.49001 -75.53864 2394 ft 215 kts 282°
2026-05-08 16:50 10.49116 -75.55438 2636 ft 232 kts 261°
2026-05-08 16:51 10.48622 -75.57048 2947 ft 249 kts 245°
2026-05-08 16:51 10.47940 -75.58730 3396 ft 263 kts 252°
2026-05-08 16:51 10.47385 -75.60512 4155 ft 266 kts 251°
2026-05-08 16:51 10.46716 -75.62277 4923 ft 269 kts 246°
2026-05-08 16:52 10.45903 -75.64017 5675 ft 273 kts 245°
2026-05-08 16:52 10.45522 -75.65873 6347 ft 277 kts 274°
2026-05-08 16:52 10.45783 -75.67822 7087 ft 280 kts 279°
2026-05-08 16:52 10.46106 -75.69786 7755 ft 284 kts 279°
2026-05-08 16:53 10.46736 -75.73802 9085 ft 291 kts 278°
2026-05-08 16:53 10.47036 -75.75848 9724 ft 294 kts 278°
2026-05-08 16:53 10.47328 -75.77922 10292 ft 301 kts 277°
2026-05-08 16:54 10.47627 -75.80098 10439 ft 321 kts 277°
2026-05-08 16:54 10.47937 -75.82412 10587 ft 339 kts 277°
2026-05-08 16:54 10.48259 -75.84840 10805 ft 353 kts 277°
2026-05-08 16:54 10.48588 -75.87339 11239 ft 359 kts 277°
2026-05-08 16:55 10.48917 -75.89858 11780 ft 361 kts 277°
2026-05-08 16:55 10.49247 -75.92393 12310 ft 363 kts 277°
2026-05-08 16:55 10.49579 -75.94950 12804 ft 367 kts 277°
2026-05-08 16:55 10.49913 -75.97529 13287 ft 370 kts 277°
2026-05-08 16:56 10.50246 -76.00098 13777 ft 372 kts 277°
2026-05-08 16:56 10.50585 -76.02715 14258 ft 375 kts 277°
2026-05-08 16:56 10.50927 -76.05358 14721 ft 378 kts 277°
2026-05-08 16:56 10.51271 -76.08020 15169 ft 382 kts 277°
2026-05-08 16:57 10.51617 -76.10702 15609 ft 384 kts 277°
2026-05-08 16:57 10.51966 -76.13406 16033 ft 387 kts 277°
2026-05-08 16:57 10.52317 -76.16129 16439 ft 390 kts 277°
2026-05-08 16:57 10.52670 -76.18869 16835 ft 393 kts 277°
2026-05-08 16:58 10.53026 -76.21632 17219 ft 395 kts 277°
2026-05-08 16:58 10.53383 -76.24408 17579 ft 398 kts 277°
2026-05-08 16:58 10.53743 -76.27204 17924 ft 400 kts 277°
2026-05-08 16:58 10.54104 -76.30019 18257 ft 403 kts 277°
2026-05-08 16:59 10.54468 -76.32849 18578 ft 405 kts 277°
2026-05-08 16:59 10.54847 -76.35698 18886 ft 407 kts 279°
2026-05-08 16:59 10.55540 -76.38503 19116 ft 412 kts 290°
2026-05-08 16:59 10.56630 -76.41169 19328 ft 415 kts 293°
2026-05-08 17:00 10.57786 -76.43869 19578 ft 418 kts 293°
2026-05-08 17:00 10.58949 -76.46585 19845 ft 419 kts 293°
2026-05-08 17:00 10.60110 -76.49312 20099 ft 421 kts 293°
2026-05-08 17:00 10.61266 -76.52052 20334 ft 423 kts 292°
2026-05-08 17:01 10.62033 -76.53877 20483 ft 424 kts 292°
2026-05-08 17:01 10.63191 -76.56647 20704 ft 426 kts 292°
2026-05-08 17:01 10.64349 -76.59424 20917 ft 427 kts 292°
2026-05-08 17:01 10.65513 -76.62220 21123 ft 429 kts 292°
2026-05-08 17:02 10.66677 -76.65019 21320 ft 431 kts 292°
2026-05-08 17:02 10.67845 -76.67830 21509 ft 432 kts 292°
2026-05-08 17:02 10.69018 -76.70653 21713 ft 434 kts 292°
2026-05-08 17:02 10.70192 -76.73477 21951 ft 435 kts 292°
2026-05-08 17:03 10.71373 -76.76320 22072 ft 437 kts 292°
2026-05-08 17:03 10.72558 -76.79171 22236 ft 438 kts 292°
2026-05-08 17:03 10.73745 -76.82029 22409 ft 439 kts 292°
2026-05-08 17:03 10.74917 -76.84854 22559 ft 440 kts 292°
2026-05-08 17:04 10.76110 -76.87727 22696 ft 442 kts 292°
2026-05-08 17:04 10.77306 -76.90610 22841 ft 442 kts 292°
2026-05-08 17:04 10.78506 -76.93502 22977 ft 443 kts 292°
2026-05-08 17:04 10.79712 -76.96412 23112 ft 444 kts 292°
2026-05-08 17:05 10.80912 -76.99307 23247 ft 445 kts 292°
2026-05-08 17:05 10.82116 -77.02211 23366 ft 446 kts 292°
2026-05-08 17:05 10.83323 -77.05126 23479 ft 447 kts 292°
2026-05-08 17:05 10.84532 -77.08044 23588 ft 448 kts 292°
2026-05-08 17:06 10.85743 -77.10970 23669 ft 450 kts 292°
2026-05-08 17:06 10.86959 -77.13906 23743 ft 451 kts 292°
2026-05-08 17:06 10.88157 -77.16802 24233 ft 447 kts 292°
2026-05-08 17:06 10.89347 -77.19680 24898 ft 438 kts 292°